This is the latest recevied weather packets stored in our database for station/object N8HON. If no packets are shown the sender has not sent any weather packets the latest 10 day(s).
| Time | Temp. | Humidity | Pressure | Rain* | Wind** | Luminosity | Snow |
|---|---|---|---|---|---|---|---|
| 1777677625 | 15° C | 43% | 1008.4 hPa | 0 mm | - | 32 W/m² | - |
| 1777677324 | 15° C | 40% | 1008.5 hPa | 0 mm | - | 35 W/m² | - |
| 1777677022 | 15.56° C | 41% | 1008.2 hPa | 0 mm | - | 54 W/m² | - |
| 1777676720 | 15.56° C | 41% | 1008.3 hPa | 0 mm | - | 46 W/m² | - |
| 1777676417 | 15.56° C | 39% | 1008.2 hPa | 0 mm | - | 55 W/m² | - |
| 1777676115 | 16.11° C | 40% | 1008.3 hPa | 0 mm | - | 57 W/m² | - |
| 1777675810 | 16.11° C | 41% | 1008 hPa | 0 mm | - | 69 W/m² | - |
| 1777675509 | 16.11° C | 37% | 1007.9 hPa | 0 mm | - | 68 W/m² | - |
| 1777675205 | 16.67° C | 40% | 1007.8 hPa | 0 mm | - | 75 W/m² | - |
| 1777674901 | 16.67° C | 40% | 1007.9 hPa | 0 mm | - | 68 W/m² | - |
| 1777674597 | 16.11° C | 43% | 1007.8 hPa | 0 mm | - | 94 W/m² | - |
| 1777674295 | 16.67° C | 43% | 1007.8 hPa | 0 mm | - | 101 W/m² | - |
| 1777673991 | 16.67° C | 43% | 1007.8 hPa | 0 mm | - | 108 W/m² | - |
| 1777673688 | 16.11° C | 46% | 1007.6 hPa | 0 mm | - | 116 W/m² | - |
| 1777673386 | 16.11° C | 44% | 1007.7 hPa | 0 mm | - | 92 W/m² | - |
| 1777673083 | 16.11° C | 43% | 1007.8 hPa | 0 mm | - | 81 W/m² | - |
| 1777672778 | 15.56° C | 43% | 1007.7 hPa | 0 mm | - | 68 W/m² | - |
| 1777672476 | 15.56° C | 45% | 1007.8 hPa | 0 mm | - | 55 W/m² | - |
| 1777672171 | 15.56° C | 45% | 1007.6 hPa | 0 mm | - | 49 W/m² | - |
| 1777671867 | 15.56° C | 45% | 1007.6 hPa | 0 mm | - | 46 W/m² | - |
| 1777671562 | 15.56° C | 45% | 1007.8 hPa | 0 mm | - | 44 W/m² | - |
| 1777671260 | 15.56° C | 45% | 1007.6 hPa | 0 mm | - | 53 W/m² | - |
| 1777670955 | 16.11° C | 45% | 1007.7 hPa | 0 mm | - | 73 W/m² | - |
| 1777670652 | 16.11° C | 44% | 1007.5 hPa | 0 mm | - | 78 W/m² | - |
| 1777670349 | 16.11° C | 45% | 1007.8 hPa | 0 mm | - | 82 W/m² | - |
* Rain latest hour (hover to see other rain measurements)
** Current wind speed in m/s (hover to see current wind gust speed)